User: anonymous   Login
Location: ??????????
(48.5701°N, 37.7703°E)
Time: 17:23:56
(UTC+00:00)
Language:

Cosmos 1954 Rocket - Orbit

View from above orbital plane
View from above orbital plane
View from above satellite
View from above satellite

Ground track
Ground track

The orbit data is extracted from the following two-line orbital elements,

1 19257U 88053B   20271.48618471  .00000017  00000-0  14287-4 0  9993
2 19257  74.0498 173.3756 0019602 129.4582  43.4634 14.37481449690946
Epoch (UTC): 27 September 2020 11:40:06
Eccentricity: 0.0019602
inclination: 74.0498°
perigee height: 753 km
apogee height: 781 km
right ascension of ascending node: 173.3756°
argument of perigee: 129.4582°
revolutions per day: 14.37481449
mean anomaly at epoch: 43.4634°
orbit number at epoch: 69094

The dashed part of the orbit path shows where the satellite is in the earth's shadow,  

DLR